Edwards, CA

12:53 PM PST on February 13, 2016 (GMT -0800)
Edwards Air Force Base

Weather History for KEDW - May, 2013

Change the Weather History Date:

Friday, May 3, 2013

  Actual Average Record
Temperature  
Mean Temperature 64 °F -  
Max Temperature 88 °F 77 °F 98 °F (2004)
Min Temperature 40 °F 48 °F 40 °F (2013)
Degree Days  
Heating Degree Days 2    
Growing Degree Days 14 (Base 50)    
Moisture  
Dew Point 1 °F    
Average Humidity 8    
Maximum Humidity 16    
Minimum Humidity 4    
Precipitation  
Precipitation 0.00 in - - ()
Sea Level Pressure  
Sea Level Pressure 29.93 in    
Wind  
Wind Speed 5 mph (WSW)    
Max Wind Speed 18 mph    
Max Gust Speed 25 mph    
Visibility 10 miles    
Events      
Averages and records for this station are not official NWS values.
T = Trace of Precipitation, MM = Missing Value Source: NWS Daily Summary

Daily Weather History Graph

Daily Weather History Graph

Search for Another Location

Airport or City:

Trip Planner

Search our weather history database for the weather conditions in past years. The results will help you decide how hot, cold, wet, or windy it might be!

Date:

Astronomy

May. 03, 2013 Rise Set
Actual Time 5:58 AM PDT 7:38 PM PDT
Civil Twilight 5:31 AM PDT 8:06 PM PDT
Nautical Twilight 4:58 AM PDT 8:38 PM PDT
Astronomical Twilight 4:24 AM PDT 9:13 PM PDT
Moon 2:10 AM PDT (5/3) 1:52 PM PDT (5/3)
Length of Visible Light 14h 34m
Length of Day
13h 40m
Waning Crescent, 36% of the Moon is Illuminated
May 3
Waning Crescent
May 9
New
May 17
First Quarter
May 24
Full
May 31
Last Quarter

Hourly Weather History & Observations

Time (PDT) Temp. Windchill Dew Point Humidity Pressure Visibility Wind Dir Wind Speed Gust Speed Precip Events Conditions
12:58 AM 47.3 °F - -11.4 °F 8% 30.12 in 10.0 mi SE 5.8 mph - N/A   Clear
1:58 AM 44.8 °F 43.3 °F -11.4 °F 9% 30.10 in 10.0 mi SSW 3.5 mph - N/A   Clear
2:58 AM 44.1 °F - -11.6 °F 9% 30.09 in 10.0 mi Calm Calm - N/A   Clear
3:58 AM 43.7 °F - -9.6 °F 10% 30.08 in 10.0 mi Calm Calm - N/A   Clear
4:58 AM 40.5 °F 36.5 °F -10.3 °F 11% 30.07 in 10.0 mi SW 5.8 mph - N/A   Clear
5:58 AM 40.1 °F 36.9 °F -7.1 °F 13% 30.06 in 90.0 mi West 4.6 mph - N/A   Partly Cloudy
6:58 AM 43.3 °F - -9.0 °F 11% 30.06 in 90.0 mi West 2.3 mph - N/A   Partly Cloudy
7:58 AM 49.1 °F - -7.4 °F 9% 30.06 in 90.0 mi Calm Calm - N/A   Partly Cloudy
8:58 AM 57.0 °F - -5.4 °F 8% 30.04 in 90.0 mi Variable 2.3 mph - N/A   Partly Cloudy
9:58 AM 64.4 °F - -4.2 °F 6% 30.03 in 90.0 mi Calm Calm - N/A   Partly Cloudy
10:58 AM 71.2 °F - -2.9 °F 5% 30.02 in 90.0 mi Variable 2.3 mph - N/A   Partly Cloudy
11:58 AM 77.5 °F - 1.6 °F 5% 29.98 in 90.0 mi NNE 4.6 mph - N/A   Partly Cloudy
12:55 PM 81.5 °F - 4.6 °F 5% 29.95 in 90.0 mi Variable 4.6 mph - N/A   Scattered Clouds
1:58 PM 83.5 °F - 6.1 °F 5% 29.91 in 90.0 mi NNE 4.6 mph - N/A   Scattered Clouds
2:58 PM 84.7 °F - 2.1 °F 4% 29.88 in 80.0 mi WNW 3.5 mph - N/A   Scattered Clouds
3:58 PM 87.3 °F - 3.9 °F 4% 29.84 in 80.0 mi Variable 4.6 mph - N/A   Scattered Clouds
4:58 PM 86.9 °F - 3.7 °F 4% 29.81 in 70.0 mi SW 5.8 mph - N/A   Scattered Clouds
5:58 PM 86.4 °F - 3.2 °F 4% 29.80 in 60.0 mi Calm Calm - N/A   Scattered Clouds
6:55 PM 85.8 °F - 2.8 °F 4% 29.78 in 40.0 mi SW 5.8 mph - N/A   Partly Cloudy
6:56 PM 85.8 °F - 2.8 °F 4% 29.78 in 40.0 mi SW 5.8 mph - N/A   Partly Cloudy
7:58 PM 79.2 °F - 10.4 °F 7% 29.80 in 30.0 mi WSW 13.8 mph - N/A   Partly Cloudy
8:24 PM 77.0 °F - 8.6 °F 7% 29.84 in 30.0 mi WSW 18.4 mph 25.3 mph N/A   Partly Cloudy
8:58 PM 76.1 °F - 8.1 °F 7% 29.81 in 30.0 mi WSW 13.8 mph - N/A   Partly Cloudy
9:58 PM 70.7 °F - 11.8 °F 10% 29.81 in 30.0 mi SW 11.5 mph - N/A   Partly Cloudy
10:58 PM 68.4 °F - 17.8 °F 14% 29.80 in 10.0 mi SW 10.4 mph - N/A   Clear
11:58 PM 65.3 °F - 16.9 °F 16% 29.78 in 10.0 mi SSW 8.1 mph - N/A   Clear